UmKA 1 (RS40S)
1 57172U 23091G   26138.81101888  .00003612  00000-0  16849-3 0  9995
2 57172  97.5065 197.6264 0011977 215.6796 144.3640 15.20446923159544
CubeBel-2 (EU11S)
1 57175U 23091K   26138.86035690  .00007875  00000-0  28721-3 0  9997
2 57175  97.5063 201.8299 0009447 209.6715 150.3990 15.28397913159822
RS-38S
1 57189U 23091Z   26138.82246141  .00010781  00000-0  31947-3 0  9997
2 57189  97.5102 207.7403 0008210 165.7159 194.4318 15.35006068160184
SONATE-2
1 59112U 24043Q   26138.39254389  .00023059  00000-0  32698-3 0  9994
2 59112  97.5509 287.0209 0005800 308.5248  51.5486 15.56448045123250
GRBBeta
1 60237U 24128C   26138.21904839  .00002680  00000-0  19190-3 0  9990
2 60237  61.9902 321.3893 0044713 128.4087 232.1034 15.06369712101754
Curium One
1 60242U 24128H   26138.87848809  .00006265  00000-0  36751-3 0  9997
2 60242  61.9789 309.5428 0044099 125.2030 235.3207 15.11997524102027
ROBUSTA-3A
1 60243U 24128J   26138.49629674  .00005260  00000-0  31757-3 0  9998
2 60243  61.9867 313.2040 0045441 122.4187 238.1316 15.11165445101931
CatSat
1 60246U 24125J   26138.83107677  .00034625  00000-0  50651-3 0  9991
2 60246  97.2109 351.0238 0021116 290.2232  69.6752 15.55269798102826
HYPERVIEW-1G (RS66S)
1 61772U 24199AP  26138.84616287  .00071122  00000-0  61917-3 0  9990
2 61772  97.2929  17.2411 0006323  46.5636 313.6151 15.68790961130065
AO-123
1 61781U 24199AY  26138.83847530  .00005548  00000-0  16408-3 0  9990
2 61781  97.3032   7.7782 0015550  58.8091 301.4674 15.35206998129428
JINJUSat 1B
1 63210U 25052A   26138.25037929  .00009229  00000-0  29655-3 0  9995
2 63210  97.4039  34.9840 0003624 155.2848 204.8568 15.32494251 65518
NUSHSAT 1
1 63211U 25052B   26138.66572552  .00012362  00000-0  36944-3 0  9998
2 63211  97.4014  35.8689 0003370 152.7386 207.4035 15.34724008 65617
TEVEL2-4
1 63213U 25052D   26138.43751472  .00010230  00000-0  31842-3 0  9999
2 63213  97.3937  34.8009 0002340 160.0524 200.0811 15.33483313 65553
TEVEL2-5
1 63214U 25052E   26138.65061104  .00010892  00000-0  34047-3 0  9994
2 63214  97.3934  34.9700 0002302 158.8541 201.2797 15.33331220 65580
TEVEL2-6
1 63215U 25052F   26138.46644104  .00010787  00000-0  33767-3 0  9992
2 63215  97.3937  34.7706 0002397 161.5493 198.5837 15.33288647 65553
TEVEL2-1
1 63217U 25052H   26137.70216278  .00010606  00000-0  33739-3 0  9996
2 63217  97.3919  33.6655 0001775 176.5909 183.5346 15.32779437 65429
TEVEL2-3
1 63218U 25052J   26138.15479912  .00009530  00000-0  30289-3 0  9994
2 63218  97.3915  34.1361 0001816 174.9518 185.1743 15.32837184 65490
TEVEL2-2
1 63219U 25052K   26138.22488334  .00009425  00000-0  29999-3 0  9990
2 63219  97.3912  34.1896 0001760 176.9146 183.2107 15.32796479 65504
TEVEL2-9
1 63237U 25052AD  26138.42594264  .00008597  00000-0  29029-3 0  9995
2 63237  97.3973  33.8279 0004238 235.7490 124.3350 15.30913495 65470
TEVEL2-7
1 63238U 25052AE  26138.19989160  .00008649  00000-0  29451-3 0  9990
2 63238  97.3976  33.5307 0004394 237.4810 122.6007 15.30638211 65437
TEVEL2-8
1 63239U 25052AF  26138.27319006  .00008480  00000-0  28896-3 0  9991
2 63239  97.3977  33.5817 0004296 238.0378 122.0445 15.30621046 65441
HYDRA-W
1 63490U 25052BL  26113.93882235  .05662091  24406-5  29537-2 0  9997
2 63490  97.3690  18.2798 0008685 203.5899 156.4993 16.20186780 62336
HADES-ICM (SO-125)
1 63492U 25052BN  26138.47705780  .01623772  18257-2  21526-2 0  9997
2 63492  97.3723  43.1467 0011435 187.6548 172.4561 16.07070045 66115
SPIRONE
1 66657U 25274H   26138.30629630  .00001165  00000-0  11618-3 0  9992
2 66657  97.7480  68.0286 0013646 110.7624 249.5059 14.93410421 25761
K-HERO
1 66660U 25274L   26138.58723521  .00000814  00000-0  81913-4 0  9996
2 66660  97.7487  68.4446 0015442 114.3212 245.9623 14.93835036 25819
SNUGLITE-III DURI
1 66661U 25274M   26138.30801450  .00000882  00000-0  88135-4 0  9993
2 66661  97.7485  68.1887 0016045 116.1702 244.1170 14.93888708 25775
SilverSat
1 66909U 98067XV  26113.44966717  .07226154  12288-4  11979-2 0  9998
2 66909  51.6027 190.0749 0007952 333.4666  26.5949 16.32457272 22308
SAKHACUBE-CHOLBON
1 67290U 25313AU  26138.62524530  .00006256  00000-0  25856-3 0  9993
2 67290  97.3940 214.0414 0011013 101.1458 259.1018 15.24292646 21471
RS95S (QMR-KWT-2)
1 67291U 25313AV  26138.17901219  .00008122  00000-0  32361-3 0  9990
2 67291  97.3942 213.7201 0010625 102.1843 258.0586 15.25431522 21412
Ten-Koh2
1 68261U 25241B   26138.30463416  .00004489  00000-0  19938-3 0  9992
2 68261  51.6572 101.8084 0006454  51.5310 308.6246 15.23478779 10358
JACK-002
1 68417U 26067B   26138.85086617  .00004294  00000-0  20848-3 0  9992
2 68417  97.4557  97.8172 0003412  56.1892 303.9667 15.18990434  7498
DISCO 2
1 68431U 26067R   26138.86501190  .00003721  00000-0  18315-3 0  9997
2 68431  97.4592  97.8226 0004411  94.0161 266.1578 15.18594905  7497
HADES-SA (SpinnyONE)
1 68446U 26067AG  26138.30492498  .00010083  00000-0  49897-3 0  9990
2 68446  97.4401  97.0778 0007634 158.9207 201.2343 15.17969277  7393
PARUS-6U1
1 68456U 26067AS  26138.77628190  .00003663  00000-0  18774-3 0  9998
2 68456  97.4541  97.6038 0006491 148.9120 211.2499 15.17177997  7479
SAL-E
1 68458U 26067AU  26138.11570230  .00005306  00000-0  26953-3 0  9993
2 68458  97.4468  96.9115 0006396 158.7174 201.4327 15.17292553  7375
FSI-SAT 2
1 68792U 26088A   26138.40026209  .00002373  00000-0  16420-3 0  9990
2 68792  97.5038 288.4203 0013969 203.1177 156.9423 15.06564131  3805
OrigamiSat 2
1 68795U 26088D   26138.84018215  .00002654  00000-0  17600-3 0  9992
2 68795  97.5040 288.9087 0015971 176.1686 183.9668 15.08016962  3879
ARICA 2
1 68796U 26088E   26138.83823477  .00003352  00000-0  22044-3 0  9990
2 68796  97.5025 288.9047 0016038 174.6091 185.5313 15.08151931  3878
WASEDA-SAT-ZERO-II
1 68797U 26088F   26138.37266125  .00004378  00000-0  28585-3 0  9996
2 68797  97.5022 288.4526 0015979 176.3103 183.8246 15.08251899  3802
MANGARO-II-Piscus
1 68798U 26088G   26138.36726632  .00003166  00000-0  20604-3 0  9998
2 68798  97.5033 288.4630 0019320 179.5744 180.5505 15.08532720  3808
IO-86
1 40931U          25360.30710720  .00000000  00000-0  12800-3 0    00
2 40931   6.0006 332.5373 0012733 338.8432   8.1437 14.79075515    01
LILIUM-4                
1 71922C 26067AC  26089.50133053 -.00014632  00000+0 -74472-3 0    04
2 71922  97.4497  49.1617 0004341   5.9603 355.7042 15.16896692    16
